CQ0XBF-11 Chamusca PT current weather conditions

sailwx.info

Wind from 216 at 10 knots gusting 14

Air temperature 13.9° C
Dewpoint 8.5° C

Last reported at 2017-Mar-25 13:00 UTC.
Time now 2017-Mar-25 13:40 UTC

Location: N 39°21' W 008°28'.
View on Google Maps.

See reports from other nearby stations

  
Tides and Currents Weather Stations Pressure Air Temp Water Temp Dewpoint Dewpoint Depression Visibility Wind Speed Wind Dir Waves Ship Positions
date/time (UTC)wind fromknots sea level pressurealtimeterstation pressurevisibilityair tempwater tempwave heightnotes
2017-Mar-25 13:00 216 10 gusting 14 13.9
2017-Mar-25 12:54 223 8 gusting 13 13.9
2017-Mar-25 12:49 223 9 gusting 14 13.3
2017-Mar-25 12:43 191 6 gusting 14 13.3
2017-Mar-25 12:39 194 10 gusting 16 14.4
2017-Mar-25 12:33 202 7 gusting 19 14.4
2017-Mar-25 12:29 196 10 gusting 13 13.9
2017-Mar-25 12:23 232 6 gusting 15 13.3
2017-Mar-25 12:19 209 8 gusting 14 13.3
2017-Mar-25 12:13 208 6 gusting 12 13.3
2017-Mar-25 12:09 213 7 gusting 12 12.8
2017-Mar-25 12:03 195 5 gusting 8 12.8
2017-Mar-25 11:59 158 5 gusting 8 13.3
2017-Mar-25 11:53 255 4 gusting 7 12.8
2017-Mar-25 11:49 201 6 gusting 7 12.2
2017-Mar-25 11:45 165 2 gusting 11 12.2
2017-Mar-25 11:39 177 4 gusting 9 12.2
2017-Mar-25 11:34 217 6 gusting 9 12.2
2017-Mar-25 11:28 184 3 gusting 10 12.8
2017-Mar-25 11:24 165 7 gusting 12 12.8
2017-Mar-25 11:18 185 8 gusting 13 12.8
2017-Mar-25 11:14 165 10 gusting 12 12.8
2017-Mar-25 11:08 232 5 gusting 11 12.8
2017-Mar-25 11:04 161 3 gusting 11 12.8
2017-Mar-25 10:58 182 4 gusting 15 13.3
2017-Mar-25 10:54 172 6 gusting 15 13.3
2017-Mar-25 10:48 219 9 gusting 12 12.8
2017-Mar-25 10:44 202 8 gusting 12 12.8
2017-Mar-25 10:38 225 4 gusting 12 12.8
2017-Mar-25 10:34 167 5 gusting 12 12.8
2017-Mar-25 10:30 149 5 gusting 9 12.8
2017-Mar-25 10:24 112 3 gusting 7 11.7
2017-Mar-25 10:20 149 1 gusting 7 11.1
2017-Mar-25 10:13 135 4 gusting 6 11.1
2017-Mar-25 10:09 147 2 gusting 6 10.6
2017-Mar-25 10:03 163 0 gusting 5 10.6
2017-Mar-25 09:59 175 2 gusting 8 10.6
2017-Mar-25 09:53 108 1 gusting 6 11.1
2017-Mar-25 09:49 047 3 gusting 8 10.6
2017-Mar-25 09:43 120 5 gusting 10 10.0
2017-Mar-25 09:39 143 4 gusting 10 10.0
2017-Mar-25 09:33 164 3 gusting 13 10.0
2017-Mar-25 09:29 165 4 gusting 13 10.0
2017-Mar-25 09:23 126 3 gusting 11 10.0
2017-Mar-25 09:19 108 6 gusting 11 10.0
2017-Mar-25 09:15 028 10.0
2017-Mar-25 09:09 125 1 gusting 15 9.4
2017-Mar-25 09:05 125 7 gusting 10 9.4
2017-Mar-25 08:58 033 0 gusting 11 8.9
2017-Mar-25 08:54 164 4 gusting 11 8.9
2017-Mar-25 08:48 146 4 gusting 11 7.8
2017-Mar-25 08:44 130 4 gusting 10 7.8
2017-Mar-25 08:38 095 7 gusting 9 7.2
2017-Mar-25 08:34 123 5 gusting 10 7.2
2017-Mar-25 08:28 139 8 gusting 13 7.2
2017-Mar-25 08:24 118 6 gusting 13 7.2
2017-Mar-25 08:18 127 5 gusting 12 7.2
2017-Mar-25 08:14 127 10 gusting 12 7.2
2017-Mar-25 08:08 144 6 gusting 13 6.7
2017-Mar-25 08:04 142 7 gusting 13 6.7
2017-Mar-25 07:58 144 5 gusting 12 6.7
2017-Mar-25 07:54 112 6 gusting 12 6.7
2017-Mar-25 07:50 102 11 gusting 11 6.7
2017-Mar-25 07:44 122 9 gusting 11 6.1
2017-Mar-25 07:39 153 4 gusting 13 6.1
2017-Mar-25 07:33 127 12 gusting 10 6.1
2017-Mar-25 07:29 118 6 gusting 13 6.1
2017-Mar-25 07:23 116 6 gusting 13 6.1
2017-Mar-25 07:19 101 6 gusting 11 6.1
2017-Mar-25 07:13 108 6 gusting 11 6.1
2017-Mar-25 07:09 111 6 gusting 11 6.1
2017-Mar-25 07:05 122 6 gusting 10 6.1
2017-Mar-25 06:59 071 6 gusting 10 6.1
2017-Mar-25 06:53 085 7 gusting 12 6.1
2017-Mar-25 06:49 127 6 gusting 12 6.1
2017-Mar-25 06:43 125 9 gusting 14 6.1
2017-Mar-25 06:39 142 7 gusting 14 6.1
2017-Mar-25 06:35 137 9 gusting 13 6.1
2017-Mar-25 06:29 113 6 gusting 11 6.1
2017-Mar-25 06:25 090 6 gusting 10 6.1
2017-Mar-25 06:18 099 6 gusting 12 6.1
2017-Mar-25 06:14 098 6 gusting 11 6.1
2017-Mar-25 06:08 142 2 gusting 14 6.1
2017-Mar-25 06:04 097 7 gusting 13 6.1
2017-Mar-25 05:58 149 7 gusting 13 6.1
2017-Mar-25 05:54 143 6 gusting 13 6.1
2017-Mar-25 05:48 123 7 gusting 13 6.1
2017-Mar-25 05:44 126 6 gusting 13 6.1
2017-Mar-25 05:38 095 6 gusting 13 6.1
2017-Mar-25 05:34 112 6 gusting 13 6.1
2017-Mar-25 05:28 095 6 gusting 14 6.1
2017-Mar-25 05:24 087 6 gusting 14 6.1
2017-Mar-25 05:20 130 6 gusting 14 6.1
2017-Mar-25 05:14 095 9 gusting 14 6.1
2017-Mar-25 05:10 098 5 gusting 13 6.1
2017-Mar-25 05:03 116 6 gusting 20 6.1
2017-Mar-25 04:59 161 5 gusting 14 5.6
2017-Mar-25 04:53 127 12 gusting 15 5.6
2017-Mar-25 04:49 035 9 gusting 13 5.6
2017-Mar-25 04:43 133 6 gusting 13 5.6
2017-Mar-25 04:39 082 6 gusting 17 5.6
2017-Mar-25 04:33 129 8 gusting 19 5.6
2017-Mar-25 04:29 101 7 gusting 19 5.6
2017-Mar-25 04:23 140 9 gusting 20 5.6
2017-Mar-25 04:19 132 12 gusting 20 5.6
2017-Mar-25 04:13 122 9 gusting 20 5.6
2017-Mar-25 04:09 113 9 gusting 20 5.6
2017-Mar-25 04:05 123 5 gusting 18 5.6
2017-Mar-25 03:59 097 6 gusting 17 5.6
2017-Mar-25 03:55 099 5 gusting 19 5.6
2017-Mar-25 03:48 111 7 gusting 22 5.6
2017-Mar-25 03:44 102 5 gusting 22 5.6
2017-Mar-25 03:38 158 6 gusting 20 5.6
2017-Mar-25 03:34 105 12 gusting 22 5.6
2017-Mar-25 03:28 087 8 gusting 24 5.6
2017-Mar-25 03:24 142 10 gusting 24 5.6
2017-Mar-25 03:18 112 6 gusting 24 5.6
2017-Mar-25 03:14 137 5 gusting 24 5.6
2017-Mar-25 03:08 132 9 gusting 19 5.6
2017-Mar-25 03:04 119 12 gusting 19 5.6
2017-Mar-25 02:58 109 8 gusting 23 5.6
2017-Mar-25 02:54 136 7 gusting 23 5.6
2017-Mar-25 02:48 056 11 gusting 20 5.6
2017-Mar-25 02:44 192 6 gusting 20 5.6
2017-Mar-25 02:40 127 7 gusting 20 5.6
2017-Mar-25 02:34 099 8 gusting 20 5.6
2017-Mar-25 02:29 130 8 gusting 22 5.6
2017-Mar-25 02:23 084 6 gusting 21 5.6
2017-Mar-25 02:19 174 7 gusting 19 5.6
2017-Mar-25 02:13 167 14 gusting 23 5.6
2017-Mar-25 02:09 082 13 gusting 24 5.6
2017-Mar-25 02:03 113 9 gusting 26 5.6
2017-Mar-25 01:59 113 11 gusting 18 5.6
2017-Mar-25 01:53 139 9 gusting 23 5.6
2017-Mar-25 01:49 068 13 gusting 23 5.6
2017-Mar-25 01:43 116 10 gusting 22 5.6
2017-Mar-25 01:39 108 9 gusting 22 5.6
2017-Mar-25 01:33 094 10 gusting 22 5.6
2017-Mar-25 01:29 118 12 gusting 22 5.6
2017-Mar-25 01:25 104 6 gusting 25 5.6
2017-Mar-25 01:19 118 12 gusting 21 5.6
2017-Mar-25 01:15 078 11 gusting 18 6.1
2017-Mar-25 01:08 090 8 gusting 25 6.1
2017-Mar-25 01:04 046 14 gusting 14 6.1
2017-Mar-25 00:58 129 12 gusting 24 6.1
2017-Mar-25 00:54 122 6 gusting 24 6.1
2017-Mar-25 00:48 127 7 gusting 19 6.1
2017-Mar-25 00:44 136 6 gusting 17 6.1
2017-Mar-25 00:38 139 5 gusting 23 6.1
2017-Mar-25 00:34 084 6 gusting 23 6.1
2017-Mar-25 00:28 171 4 gusting 21 6.1
2017-Mar-25 00:24 108 15 gusting 21 6.7
2017-Mar-25 00:18 085 6 gusting 16 6.7
2017-Mar-25 00:14 104 7 gusting 16 6.7
2017-Mar-25 00:10 109 5 gusting 21 6.7
2017-Mar-25 00:04 109 6 gusting 13 6.7
2017-Mar-25 00:00 118 10 gusting 13 6.7
2017-Mar-24 23:53 174 4 gusting 13 6.7
2017-Mar-24 23:49 136 5 gusting 15 6.7
2017-Mar-24 23:43 116 6 gusting 12 6.7
2017-Mar-24 23:39 129 4 gusting 11 6.7
2017-Mar-24 23:33 130 2 gusting 8 6.7
2017-Mar-24 23:29 085 2 gusting 9 6.7
2017-Mar-24 23:23 097 3 gusting 8 6.7
2017-Mar-24 23:19 122 4 gusting 8 6.7
2017-Mar-24 23:13 170 4 gusting 7 6.7
2017-Mar-24 23:09 091 3 gusting 7 6.7
2017-Mar-24 23:03 106 4 gusting 7 6.7
2017-Mar-24 22:59 135 5 gusting 7 6.7
2017-Mar-24 22:55 137 4 gusting 7 6.7
2017-Mar-24 22:49 115 5 gusting 6 6.7
2017-Mar-24 22:45 130 4 gusting 8 6.7
2017-Mar-24 22:38 109 4 gusting 7 6.7
2017-Mar-24 22:34 123 6 gusting 7 6.7
2017-Mar-24 22:28 104 5 gusting 11 6.7
2017-Mar-24 22:24 118 5 gusting 9 6.7
2017-Mar-24 22:18 132 4 gusting 7 6.7
2017-Mar-24 22:14 125 4 gusting 6 6.7
2017-Mar-24 22:08 105 5 gusting 8 6.7
2017-Mar-24 22:04 146 4 gusting 8 6.7
2017-Mar-24 21:58 130 3 gusting 5 6.7
2017-Mar-24 21:54 102 3 gusting 5 6.7
2017-Mar-24 21:48 129 2 gusting 5 7.2
2017-Mar-24 21:44 101 3 gusting 5 7.2
2017-Mar-24 21:38 154 2 gusting 6 7.2
2017-Mar-24 21:34 104 2 gusting 6 7.2
2017-Mar-24 21:30 123 2 gusting 6 7.2
2017-Mar-24 21:24 118 4 gusting 6 7.2
2017-Mar-24 21:19 108 2 gusting 6 7.2
2017-Mar-24 21:13 129 2 gusting 6 7.2
2017-Mar-24 21:09 108 5 gusting 6 7.2
2017-Mar-24 21:03 118 2 gusting 7 7.2
2017-Mar-24 20:59 091 2 gusting 7 7.2
2017-Mar-24 20:53 109 5 gusting 6 7.2
2017-Mar-24 20:49 087 2 gusting 5 7.2
2017-Mar-24 20:43 119 4 gusting 6 7.2
2017-Mar-24 20:39 118 2 gusting 6 7.2
2017-Mar-24 20:33 111 2 gusting 6 7.2
2017-Mar-24 20:29 127 2 gusting 6 7.2
2017-Mar-24 20:23 091 2 gusting 5 7.2
2017-Mar-24 20:19 123 3 gusting 5 7.2
2017-Mar-24 20:15 098 2 gusting 4 7.2
2017-Mar-24 20:09 091 0 gusting 3 7.2
2017-Mar-24 20:05 112 3 gusting 3 7.8
2017-Mar-24 19:58 163 2 gusting 5 7.8
2017-Mar-24 19:54 146 2 gusting 6 7.8
2017-Mar-24 19:48 119 3 gusting 6 7.8
2017-Mar-24 19:44 149 2 gusting 5 7.8
2017-Mar-24 19:38 163 3 gusting 7 7.8
2017-Mar-24 19:34 160 2 gusting 6 7.8
2017-Mar-24 19:28 188 6 gusting 9 7.8
2017-Mar-24 19:24 171 4 gusting 9 7.8
2017-Mar-24 19:18 168 5 gusting 8 7.8
2017-Mar-24 19:14 170 3 gusting 8 7.8
2017-Mar-24 19:08 144 1 gusting 8 7.8
2017-Mar-24 19:04 143 3 gusting 8 7.8
2017-Mar-24 19:00 102 4 gusting 6 7.8
2017-Mar-24 18:54 132 4 gusting 7 7.8
2017-Mar-24 18:50 098 5 gusting 7 7.8
2017-Mar-24 18:43 144 6 gusting 12 7.8
2017-Mar-24 18:39 167 3 gusting 13 7.8
2017-Mar-24 18:33 102 4 gusting 7 7.8
2017-Mar-24 18:29 164 3 gusting 9 7.8
2017-Mar-24 18:23 126 5 gusting 10 7.8
2017-Mar-24 18:19 151 6 gusting 11 7.8
2017-Mar-24 18:13 101 3 gusting 9 8.3
2017-Mar-24 18:09 133 5 gusting 9 8.3
2017-Mar-24 18:03 120 3 gusting 11 8.3
2017-Mar-24 17:59 136 5 gusting 11 8.3
2017-Mar-24 17:53 142 4 gusting 12 8.3
2017-Mar-24 17:49 074 3 gusting 12 8.3
2017-Mar-24 17:45 050 3 gusting 13 8.3
2017-Mar-24 17:39 097 5 gusting 13 8.3
2017-Mar-24 17:35 115 5 gusting 10 8.3
2017-Mar-24 17:28 143 7 gusting 8 8.3
2017-Mar-24 17:24 149 4 gusting 6 8.3
2017-Mar-24 17:18 111 3 gusting 6 8.9
2017-Mar-24 17:14 106 2 gusting 8 8.9
2017-Mar-24 17:08 137 3 gusting 5 8.9
2017-Mar-24 17:04 113 3 gusting 6 8.9
2017-Mar-24 16:58 133 3 gusting 9 9.4
2017-Mar-24 16:54 127 2 gusting 9 9.4
2017-Mar-24 16:48 184 7 gusting 6 10.0
2017-Mar-24 16:44 189 3 gusting 6 10.0
2017-Mar-24 16:38 182 1 10.6
2017-Mar-24 16:34 168 10.6
2017-Mar-24 16:28 168 10.0
2017-Mar-24 16:24 104 10.0
2017-Mar-24 16:20 102 1 gusting 3 10.0
2017-Mar-24 16:14 054 2 gusting 6 10.0
2017-Mar-24 16:09 127 1 gusting 5 10.0
2017-Mar-24 16:03 113 2 gusting 5 10.0
2017-Mar-24 15:59 133 1 gusting 6 10.0
2017-Mar-24 15:53 115 1 gusting 6 10.6
2017-Mar-24 15:49 090 2 gusting 4 10.6
2017-Mar-24 15:43 222 2 gusting 5 11.1
2017-Mar-24 15:39 140 1 gusting 5 11.7
2017-Mar-24 15:33 122 11.7
2017-Mar-24 15:29 157 2 gusting 6 12.2
2017-Mar-24 15:23 102 1 gusting 3 12.2
2017-Mar-24 15:19 174 4 gusting 3 12.2
2017-Mar-24 15:13 175 2 gusting 4 12.2
2017-Mar-24 15:09 146 1 gusting 4 11.7
2017-Mar-24 15:05 161 2 gusting 5 11.7
2017-Mar-24 14:59 178 1 gusting 5 11.7
2017-Mar-24 14:55 225 4 gusting 5 11.7
2017-Mar-24 14:48 240 1 gusting 6 11.1
2017-Mar-24 14:44 220 3 gusting 7 11.1
2017-Mar-24 14:38 262 4 gusting 7 11.7
2017-Mar-24 14:34 307 3 gusting 4 12.2
2017-Mar-24 14:28 264 13.3
2017-Mar-24 14:24 279 13.9
2017-Mar-24 14:18 239 0 gusting 4 13.9
2017-Mar-24 14:14 201 0 gusting 4 14.4
2017-Mar-24 14:08 196 1 gusting 2 14.4
2017-Mar-24 14:04 104 13.9
2017-Mar-24 13:58 070 13.9
2017-Mar-24 13:54 087 13.9
2017-Mar-24 13:50 094 1 gusting 6 13.9
2017-Mar-24 13:44 157 2 gusting 6 13.9
2017-Mar-24 13:40 088 3 gusting 6 14.4
2017-Mar-24 13:33 084 15.0
2017-Mar-24 13:29 132 1 gusting 5 15.0
2017-Mar-24 13:23 292 1 gusting 4 15.6
2017-Mar-24 13:19 066 1 gusting 2 15.6
2017-Mar-24 13:13 180 15.6
2017-Mar-24 13:09 226 0 15.0
2017-Mar-24 13:03 142 15.0
2017-Mar-24 12:59 142 15.0
2017-Mar-24 12:53 126 15.6
2017-Mar-24 12:49 170 15.0
2017-Mar-24 12:43 120 14.4
2017-Mar-24 12:39 340 1 gusting 3 15.0
2017-Mar-24 12:35 225 15.0
2017-Mar-24 12:29 225 13.9
2017-Mar-24 12:25 305 1 gusting 3 13.3
2017-Mar-24 12:19 344 2 gusting 5 13.3
2017-Mar-24 12:14 350 2 gusting 4 13.3
2017-Mar-24 12:08 333 3 gusting 4 12.8
2017-Mar-24 12:04 330 3 gusting 6 13.3
2017-Mar-24 11:58 146 0 gusting 6 12.8
2017-Mar-24 11:54 063 12.2
2017-Mar-24 11:48 063 1 gusting 6 11.1
2017-Mar-24 11:44 293 0 gusting 6 11.1
2017-Mar-24 11:38 327 3 gusting 4 11.1
2017-Mar-24 11:34 288 5 gusting 4 11.7
2017-Mar-24 11:28 312 4 gusting 3 12.2
2017-Mar-24 11:24 289 0 gusting 3 12.8
2017-Mar-24 11:18 064 12.8
2017-Mar-24 11:14 310 12.8
2017-Mar-24 11:10 324 1 gusting 3 12.8
2017-Mar-24 11:04 219 12.2
2017-Mar-24 10:59 345 2 gusting 3 11.1
2017-Mar-24 10:53 291 0 gusting 4 11.1
2017-Mar-24 10:49 333 2 gusting 3 11.1
2017-Mar-24 10:43 324 2 gusting 2 10.6
2017-Mar-24 10:39 326 1 gusting 3 10.6
2017-Mar-24 10:33 316 1 gusting 3 10.0
2017-Mar-24 10:29 305 2 gusting 4 9.4
2017-Mar-24 10:23 300 2 gusting 5 9.4
2017-Mar-24 10:19 306 4 gusting 5 8.9
2017-Mar-24 10:13 320 8.9
2017-Mar-24 10:09 307 0 gusting 6 8.9
2017-Mar-24 10:03 326 5 gusting 3 8.9
2017-Mar-24 09:59 319 3 gusting 3 8.9
2017-Mar-24 09:55 319 8.9
2017-Mar-24 09:49 324 1 gusting 4 8.3
2017-Mar-24 09:45 310 0 gusting 4 8.3
2017-Mar-24 09:38 313 4 gusting 4 8.3
2017-Mar-24 09:34 312 2 gusting 4 8.9
2017-Mar-24 09:28 284 8.9
2017-Mar-24 09:24 284 0 8.9
2017-Mar-24 09:18 129 8.9
2017-Mar-24 09:14 156 0 gusting 0 8.9
2017-Mar-24 09:08 144 8.3
2017-Mar-24 09:04 154 8.3
2017-Mar-24 08:58 149 7.2
2017-Mar-24 08:54 330 7.2
2017-Mar-24 08:48 309 7.2
2017-Mar-24 08:44 309 6.7
2017-Mar-24 08:40 337 1 gusting 0 7.2
2017-Mar-24 08:34 285 7.2
2017-Mar-24 08:30 270 7.2
2017-Mar-24 08:23 284 7.2
2017-Mar-24 08:19 284 7.8
2017-Mar-24 08:13 305 0 gusting 1 8.3
2017-Mar-24 08:09 039 8.3
2017-Mar-24 08:03 039 8.3
2017-Mar-24 07:59 039 7.2
2017-Mar-24 07:53 073 0 gusting 1 6.7
2017-Mar-24 07:49 019 6.7
2017-Mar-24 07:43 351 0 8.3
2017-Mar-24 07:39 026 0 8.9
2017-Mar-24 07:33 108 9.4
2017-Mar-24 07:29 144 0 gusting 0 8.9
2017-Mar-24 07:23 115 8.9
2017-Mar-24 07:19 115 8.9
2017-Mar-24 07:15 115 8.9
2017-Mar-24 07:09 182 8.3
2017-Mar-24 07:04 182 7.8
2017-Mar-24 06:58 074 6.7
2017-Mar-24 06:54 074 6.1
2017-Mar-24 06:48 171 5.0
2017-Mar-24 06:44 171 3.9
2017-Mar-24 06:38 184 0 gusting 2 3.3
2017-Mar-24 06:34 185 0 gusting 1 3.3
2017-Mar-24 06:28 108 3.3
2017-Mar-24 06:24 108 3.3
2017-Mar-24 06:18 108 3.3
2017-Mar-24 06:14 108 3.3
2017-Mar-24 06:08 108 3.3
2017-Mar-24 06:04 108 3.3
2017-Mar-24 06:00 108 3.3
2017-Mar-24 05:54 108 3.3
2017-Mar-24 05:50 144 0 gusting 2 3.3
2017-Mar-24 05:43 154 1 gusting 3 3.3
2017-Mar-24 05:39 147 1 gusting 2 3.3
2017-Mar-24 05:33 149 1 gusting 3 3.3
2017-Mar-24 05:29 174 2 gusting 3 3.3
2017-Mar-24 05:23 187 2 gusting 3 3.3
2017-Mar-24 05:19 206 1 gusting 2 3.3
2017-Mar-24 05:13 135 0 gusting 2 3.3
2017-Mar-24 05:09 181 1 gusting 2 3.3
2017-Mar-24 05:03 229 0 3.3
2017-Mar-24 04:59 113 3.3
2017-Mar-24 04:53 113 3.3
2017-Mar-24 04:49 113 3.3
2017-Mar-24 04:45 113 3.3
2017-Mar-24 04:39 127 3.3
2017-Mar-24 04:35 150 0 3.3
2017-Mar-24 04:28 133 3.3
2017-Mar-24 04:24 133 3.3
2017-Mar-24 04:18 056 3.3
2017-Mar-24 04:14 056 3.3
2017-Mar-24 04:08 097 0 gusting 2 3.3
2017-Mar-24 04:04 059 0 gusting 3 3.3
2017-Mar-24 03:58 073 2 gusting 3 3.3
2017-Mar-24 03:54 085 1 gusting 3 3.3
2017-Mar-24 03:48 113 1 3.9
2017-Mar-24 03:44 151 3.9
2017-Mar-24 03:38 151 3.9
2017-Mar-24 03:34 151 3.9
2017-Mar-24 03:30 151 3.9
2017-Mar-24 03:24 250 3.9
2017-Mar-24 03:20 291 0 3.9
2017-Mar-24 03:13 265 3.9
2017-Mar-24 03:09 265 3.9
2017-Mar-24 03:03 265 3.9
2017-Mar-24 02:59 265 3.9
2017-Mar-24 02:53 265 3.9
2017-Mar-24 02:49 265 3.9
2017-Mar-24 02:43 265 3.9
2017-Mar-24 02:39 265 3.9
2017-Mar-24 02:33 217 3.9
2017-Mar-24 02:29 227 0 3.9
2017-Mar-24 02:23 237 3.9
2017-Mar-24 02:19 237 3.9
2017-Mar-24 02:13 237 3.9
2017-Mar-24 02:09 237 4.4
2017-Mar-24 02:05 237 4.4
2017-Mar-24 01:59 270 4.4
2017-Mar-24 01:54 270 4.4
2017-Mar-24 01:48 230 2 gusting 1 4.4
2017-Mar-24 01:44 251 4.4
2017-Mar-24 01:38 271 0 gusting 1 4.4
2017-Mar-24 01:34 262 4.4
2017-Mar-24 01:28 265 1 gusting 1 4.4
2017-Mar-24 01:24 226 4.4
2017-Mar-24 01:18 246 4.4
2017-Mar-24 01:14 254 0 gusting 3 4.4
2017-Mar-24 01:08 265 1 gusting 2 4.4
2017-Mar-24 01:04 212 2 gusting 2 4.4
2017-Mar-24 00:58 210 1 gusting 3 4.4
2017-Mar-24 00:54 198 0 gusting 3 5.0
2017-Mar-24 00:50 223 2 gusting 3 5.0
2017-Mar-24 00:44 213 2 gusting 3 5.0
2017-Mar-24 00:40 226 2 gusting 3 5.0
2017-Mar-24 00:33 227 1 gusting 3 5.0
2017-Mar-24 00:29 206 2 gusting 1 5.0
2017-Mar-24 00:23 189 0 gusting 1 5.0
2017-Mar-24 00:19 168 0 gusting 1 5.0
2017-Mar-24 00:14 194 0 gusting 1 5.0
2017-Mar-24 00:09 225 5.0
2017-Mar-24 00:03 168 5.0
2017-Mar-23 23:57 194 0 gusting 1 5.0
2017-Mar-23 23:53 172 1 gusting 1 5.0
2017-Mar-23 23:49 195 0 gusting 1 5.0
2017-Mar-23 23:43 151 1 gusting 2 5.0
2017-Mar-23 23:39 158 1 gusting 2 5.0
2017-Mar-23 23:35 160 1 gusting 4 5.0
2017-Mar-23 23:29 177 2 gusting 4 5.0
2017-Mar-23 23:25 181 2 gusting 6 5.0
2017-Mar-23 23:18 191 4 gusting 4 5.0
2017-Mar-23 23:14 168 3 gusting 4 5.0
2017-Mar-23 23:08 206 3 gusting 6 5.0
2017-Mar-23 23:04 202 2 gusting 5 5.0
2017-Mar-23 22:58 203 2 gusting 5 5.6
2017-Mar-23 22:54 195 2 gusting 4 5.6
2017-Mar-23 22:48 188 2 gusting 5 5.6
2017-Mar-23 22:44 203 5 gusting 5 5.6
2017-Mar-23 22:38 220 2 gusting 4 5.6
2017-Mar-23 22:32 194 2 gusting 5 5.6
2017-Mar-23 22:28 223 1 gusting 6 5.6
2017-Mar-23 22:24 205 2 gusting 6 5.6
2017-Mar-23 22:20 192 3 gusting 6 5.6
2017-Mar-23 22:14 212 4 gusting 5 5.6
2017-Mar-23 22:10 209 4 gusting 5 5.6
2017-Mar-23 22:04 236 4 gusting 4 5.6
2017-Mar-23 21:59 206 3 gusting 4 5.6
2017-Mar-23 21:53 199 1 gusting 4 5.6
2017-Mar-23 21:49 171 3 gusting 3 5.6
2017-Mar-23 21:43 202 1 gusting 2 6.1
2017-Mar-23 21:39 233 2 gusting 3 6.1
2017-Mar-23 21:33 244 2 gusting 4 6.1
2017-Mar-23 21:29 232 3 gusting 4 6.1
2017-Mar-23 21:23 219 1 gusting 4 6.1
2017-Mar-23 21:19 229 1 gusting 4 6.1
2017-Mar-23 21:13 226 0 gusting 5 6.7
2017-Mar-23 21:09 237 6.7
2017-Mar-23 21:03 289 6.7
2017-Mar-23 20:59 309 3 gusting 5 6.7
2017-Mar-23 20:55 291 0 gusting 0 6.7
2017-Mar-23 20:49 243 6.7
2017-Mar-23 20:44 251 0 gusting 3 6.7
2017-Mar-23 20:38 270 1 gusting 3 6.7
2017-Mar-23 20:34 225 2 gusting 2 6.7
2017-Mar-23 20:28 241 0 gusting 1 6.7
2017-Mar-23 20:24 225 6.1
2017-Mar-23 20:18 168 2 gusting 4 6.1
2017-Mar-23 20:14 180 2 gusting 5 6.7
2017-Mar-23 20:08 195 2 gusting 5 6.7
2017-Mar-23 20:04 165 3 gusting 5 6.7
2017-Mar-23 19:58 154 1 gusting 3 6.7
2017-Mar-23 19:54 185 3 gusting 3 6.7
2017-Mar-23 19:48 185 1 gusting 2 6.7
2017-Mar-23 19:44 164 0 gusting 2 6.7
2017-Mar-23 19:40 223 1 gusting 2 7.2
2017-Mar-23 19:34 219 0 gusting 2 7.2
2017-Mar-23 19:30 262 0 gusting 2 7.2
2017-Mar-23 19:23 205 1 gusting 1 7.2
2017-Mar-23 19:19 184 0 gusting 2 7.2
2017-Mar-23 19:13 097 7.2
2017-Mar-23 19:09 084 7.8
2017-Mar-23 19:03 192 7.8
2017-Mar-23 18:59 175 7.8
2017-Mar-23 18:53 165 7.8
2017-Mar-23 18:49 244 7.2
2017-Mar-23 18:43 277 7.8
2017-Mar-23 18:39 305 3 gusting 3 7.8
2017-Mar-23 18:33 299 1 gusting 5 7.8
2017-Mar-23 18:29 327 0 gusting 5 7.8
2017-Mar-23 18:25 306 3 gusting 2 7.8
2017-Mar-23 18:19 265 7.8
2017-Mar-23 18:15 258 7.8
2017-Mar-23 18:08 288 7.8
2017-Mar-23 18:04 267 2 gusting 7 7.8
2017-Mar-23 17:58 291 5 gusting 7 7.8
2017-Mar-23 17:54 254 0 gusting 7 7.8
2017-Mar-23 17:48 315 4 gusting 7 7.8
2017-Mar-23 17:44 270 4 gusting 12 7.8
2017-Mar-23 17:38 312 4 gusting 10 8.3
2017-Mar-23 17:34 291 0 gusting 10 8.3
2017-Mar-23 17:28 285 6 gusting 14 8.3
2017-Mar-23 17:24 302 8 gusting 14 8.3
2017-Mar-23 17:18 291 5 gusting 14 8.3
2017-Mar-23 17:14 262 4 gusting 14 8.3
2017-Mar-23 17:08 295 12 gusting 12 8.3
2017-Mar-23 17:04 322 6 gusting 12 8.3
2017-Mar-23 17:00 324 3 gusting 16 8.3
2017-Mar-23 16:54 300 4 gusting 11 8.3
2017-Mar-23 16:49 303 9 gusting 11 8.9
2017-Mar-23 16:43 307 9 gusting 11 8.9
2017-Mar-23 16:39 309 5 gusting 13 8.9
2017-Mar-23 16:33 258 5 gusting 19 8.9
2017-Mar-23 16:29 305 15 gusting 16 8.9
2017-Mar-23 16:23 282 13 gusting 9 9.4
2017-Mar-23 16:19 274 2 gusting 9 10.0
2017-Mar-23 16:13 289 2 gusting 7 10.6
2017-Mar-23 16:09 284 3 gusting 7 11.1
2017-Mar-23 16:03 284 3 gusting 10 11.1
2017-Mar-23 15:59 281 1 gusting 10 10.6
2017-Mar-23 15:53 334 7 gusting 8 10.0
2017-Mar-23 15:49 286 1 gusting 8 9.4
2017-Mar-23 15:45 244 4 gusting 7 8.9
2017-Mar-23 15:39 289 2 gusting 6 8.9
2017-Mar-23 15:35 281 0 gusting 6 8.9
2017-Mar-23 15:28 279 2 gusting 11 8.3
2017-Mar-23 15:24 307 6 gusting 13 8.3
2017-Mar-23 15:18 296 9 gusting 16 8.3
2017-Mar-23 15:14 284 10 gusting 14 8.3
2017-Mar-23 15:08 281 9 gusting 16 8.3
2017-Mar-23 15:04 305 8 gusting 19 8.9
2017-Mar-23 14:58 306 7 gusting 14 9.4
2017-Mar-23 14:54 288 12 gusting 14 10.0
2017-Mar-23 14:48 327 5 gusting 9 10.0
2017-Mar-23 14:44 302 8 gusting 9 10.0
2017-Mar-23 14:38 281 4 gusting 8 10.0
2017-Mar-23 14:34 232 0 gusting 8 10.0
2017-Mar-23 14:30 299 3 gusting 8 10.0
2017-Mar-23 14:24 298 7 gusting 12 10.0
2017-Mar-23 14:20 298 6 gusting 9 10.0
2017-Mar-23 14:13 253 0 gusting 6 10.6
2017-Mar-23 14:09 285 2 gusting 6 10.6
2017-Mar-23 14:03 341 3 gusting 6 10.0
2017-Mar-23 13:59 270 2 gusting 5 10.6
2017-Mar-23 13:53 026 3 gusting 6 10.6
2017-Mar-23 13:49 309 10.6
2017-Mar-23 13:43 316 6 gusting 6 10.6
2017-Mar-23 13:39 303 10.6
2017-Mar-23 13:33 289 2 gusting 7 10.0
2017-Mar-23 13:29 302 9 gusting 7 10.6
2017-Mar-23 13:23 299 4 gusting 10 10.6
2017-Mar-23 13:19 292 5 gusting 10 10.0
2017-Mar-23 13:15 305 3 gusting 9 10.0
2017-Mar-23 13:09 303 2 gusting 8 9.4
2017-Mar-23 13:05 298 4 gusting 4 8.9